Tracking 18942 objects as of 18-Jan-2018
HD Live streaming from Space Station
objects crossing your sky now

FENGYUN 1C DEB

Track FENGYUN 1C DEB now!
10-day predictions


NORAD ID: 30986
Int'l Code: 1999-025BCC
Perigee: 791.9 km
Apogee: 866.2 km
Inclination: 98.8 °
Period: 101.3 minutes
Semi major axis: 7200 km
RCS: 0.0079 m2 (small)
Launch date: May 10, 1999
Source: People's Republic of China (PRC)
Launch site: Taiyaun Space Center, China (TSC)

Note: This is SATELLITE DEBRIS
aabbcc
Your satellite tracking list
Your tracking list is empty




NASA's NSSDC Master Catalog

Two Line Element Set (TLE):
1 30986U 99025BCC 18007.91920233  .00000313  00000-0  16297-3 0  9991
2 30986  98.8454  43.9600 0051579 315.8846 165.7583 14.21021415561187
Source of the keplerian elements: AFSPC